Change the Weather History Date:

Wednesday, June 5, 2013

  Actual Average Record
Temperature  
Mean Temperature 79 °F 76 °F  
Max Temperature 89 °F 86 °F 100 °F (1985)
Min Temperature 69 °F 65 °F 47 °F (1946)
Cooling Degree Days 14 11  
Month to date cooling degree days 55 51  
Year to date cooling degree days 320 333  
Since 1 June cooling degree days 55 51  
Growing Degree Days 27 (Base 50)    
Moisture  
Dew Point 68 °F    
Average Humidity 76    
Maximum Humidity 90    
Minimum Humidity 61    
Precipitation  
Precipitation 3.40 in 0.14 in 3.57 in (2013)
Month to date precipitation 3.40 0.71  
Year to date precipitation 33.91 24.68  
Sea Level Pressure  
Sea Level Pressure 29.95 in    
Wind  
Wind Speed 6 mph (ESE)    
Max Wind Speed 28 mph    
Max Gust Speed 35 mph    
Visibility 8 miles    
Events Fog , Rain , Thunderstorm    
T = Trace of Precipitation, MM = Missing Value Source: NWS Daily Summary

Daily Weather History Graph

Daily Weather History Graph

Search for Another Location

Airport or City:

Trip Planner

Search our weather history database for the weather conditions in past years. The results will help you decide how hot, cold, wet, or windy it might be!

Date:

Astronomy

Jun. 05, 2013 Rise Set
Actual Time 5:36 AM CDT 7:54 PM CDT
Civil Twilight 5:08 AM CDT 8:23 PM CDT
Nautical Twilight 4:33 AM CDT 8:58 PM CDT
Astronomical Twilight 3:54 AM CDT 9:36 PM CDT
Moon 3:33 AM CDT (6/5) 5:25 PM CDT (6/5)
Length of Visible Light 15h 14m
Length of Day
14h 17m
Waning Crescent, 8% of the Moon is Illuminated
Jun 5
Waning Crescent
Jun 8
New
Jun 16
First Quarter
Jun 23
Full
Jun 29
Last Quarter

Hourly Weather History & Observations

Time (CDT) Temp. Heat Index Dew Point Humidity Pressure Visibility Wind Dir Wind Speed Gust Speed Precip Events Conditions
12:53 AM 73.9 °F - 66.0 °F 76% 29.96 in 10.0 mi North 4.6 mph - N/A   Clear
1:53 AM 73.9 °F - 66.0 °F 76% 29.96 in 10.0 mi Calm Calm - N/A   Scattered Clouds
2:53 AM 75.9 °F - 66.0 °F 71% 29.96 in 10.0 mi Calm Calm - N/A   Overcast
3:53 AM 73.9 °F - 66.0 °F 76% 29.96 in 10.0 mi Calm Calm - N/A   Partly Cloudy
4:53 AM 73.9 °F - 66.9 °F 79% 29.97 in 10.0 mi SE 4.6 mph - N/A   Partly Cloudy
5:53 AM 73.9 °F - 69.1 °F 85% 29.99 in 10.0 mi Variable 3.5 mph - N/A   Mostly Cloudy
6:53 AM 75.0 °F - 70.0 °F 84% 29.98 in 10.0 mi SSW 3.5 mph - N/A   Mostly Cloudy
7:20 AM 77.0 °F - 71.6 °F 83% 30.00 in 10.0 mi SSW 6.9 mph - N/A   Overcast
7:53 AM 79.0 °F - 71.1 °F 77% 29.97 in 10.0 mi SW 8.1 mph - N/A   Mostly Cloudy
8:24 AM 78.8 °F - 71.6 °F 78% 30.01 in 10.0 mi SW 11.5 mph - N/A   Mostly Cloudy
8:43 AM 80.6 °F 84.6 °F 71.6 °F 74% 30.00 in 10.0 mi West 9.2 mph - N/A   Scattered Clouds
8:53 AM 80.1 °F 83.6 °F 71.1 °F 74% 29.97 in 10.0 mi SW 8.1 mph - N/A   Scattered Clouds
9:53 AM 82.0 °F 86.3 °F 71.1 °F 69% 29.98 in 10.0 mi South 6.9 mph - N/A   Scattered Clouds
10:00 AM 82.4 °F 87.2 °F 71.6 °F 70% 30.01 in 10.0 mi SW 6.9 mph - N/A   Mostly Cloudy
10:53 AM 84.0 °F 89.0 °F 71.1 °F 65% 29.98 in 10.0 mi West 8.1 mph - N/A   Mostly Cloudy
11:27 AM 84.2 °F 89.6 °F 71.6 °F 66% 30.00 in 10.0 mi WNW 3.5 mph - N/A   Mostly Cloudy
11:53 AM 84.9 °F 89.4 °F 70.0 °F 61% 29.96 in 10.0 mi South 6.9 mph - N/A   Mostly Cloudy
12:04 PM 84.2 °F 89.6 °F 71.6 °F 66% 29.98 in 10.0 mi Variable 6.9 mph - N/A   Overcast
12:47 PM 86.0 °F 90.4 °F 69.8 °F 58% 29.96 in 10.0 mi South 10.4 mph - N/A Thunderstorm Thunderstorm
12:53 PM 86.0 °F 90.1 °F 69.1 °F 57% 29.93 in 10.0 mi South 10.4 mph - N/A Thunderstorm Thunderstorm
1:53 PM 82.9 °F 87.0 °F 70.0 °F 65% 29.89 in 10.0 mi SSE 10.4 mph 24.2 mph N/A Thunderstorm Thunderstorm
2:29 PM 73.4 °F - 69.8 °F 88% 29.95 in 7.0 mi NE 20.7 mph 27.6 mph 0.01 in Rain , Thunderstorm Light Thunderstorms and Rain
2:32 PM 71.6 °F - 68.0 °F 88% 29.95 in 2.0 mi NNE 26.5 mph 32.2 mph 0.01 in Rain , Thunderstorm Heavy Thunderstorms and Rain
2:35 PM 69.8 °F - 68.0 °F 94% 29.94 in 0.8 mi NNE 26.5 mph 33.4 mph N/A Rain , Thunderstorm Heavy Thunderstorms and Rain
2:46 PM 71.6 °F - 69.8 °F 94% 29.95 in 0.2 mi NNE 23.0 mph 33.4 mph 0.87 in Fog , Rain , Thunderstorm Heavy Thunderstorms and Rain
2:53 PM 71.1 °F - 66.9 °F 87% 29.93 in 0.2 mi NE 16.1 mph 34.5 mph 1.36 in Fog , Rain , Thunderstorm Heavy Thunderstorms and Rain
2:59 PM 71.6 °F - 66.2 °F 83% 29.99 in 0.2 mi East 8.1 mph 21.9 mph 0.26 in Fog , Rain , Thunderstorm Heavy Thunderstorms and Rain
3:19 PM 69.8 °F - 66.2 °F 88% 29.93 in 3.0 mi ENE 15.0 mph 31.1 mph 1.66 in Rain , Thunderstorm Heavy Thunderstorms and Rain
3:29 PM 69.8 °F - 66.2 °F 88% 29.95 in 8.0 mi Variable 4.6 mph - 1.66 in Rain Light Rain
3:53 PM 70.0 °F - 66.9 °F 90% 29.95 in 10.0 mi SE 10.4 mph - 1.66 in   Mostly Cloudy
4:53 PM 73.0 °F - 68.0 °F 84% 29.91 in 10.0 mi NE 4.6 mph - N/A   Scattered Clouds
5:53 PM 71.1 °F - 68.0 °F 90% 29.94 in 10.0 mi NW 13.8 mph - N/A   Mostly Cloudy
6:00 PM 71.6 °F - 68.0 °F 88% 29.96 in 10.0 mi NW 11.5 mph - N/A Thunderstorm Thunderstorm
6:25 PM 71.6 °F - 69.8 °F 94% 29.99 in 1.0 mi WNW 13.8 mph - 0.05 in Rain , Thunderstorm Light Thunderstorms and Rain
6:53 PM 69.1 °F - 66.9 °F 93% 29.97 in 1.2 mi ESE 4.6 mph - 0.36 in Rain , Thunderstorm Light Thunderstorms and Rain
7:03 PM 69.8 °F - 66.2 °F 88% 29.97 in 2.0 mi NE 4.6 mph - 0.04 in Rain , Thunderstorm Light Thunderstorms and Rain
7:05 PM 69.8 °F - 66.2 °F 88% 29.97 in 2.0 mi ENE 5.8 mph - 0.04 in Rain Rain
7:12 PM 69.8 °F - 66.2 °F 88% 29.97 in 4.0 mi East 3.5 mph - 0.07 in Rain Rain
7:53 PM 69.1 °F - 66.9 °F 93% 29.93 in 8.0 mi Calm Calm - 0.15 in Rain Light Rain
8:53 PM 68.0 °F - 66.0 °F 93% 29.88 in 10.0 mi SE 8.1 mph - 0.03 in Rain Light Rain
9:53 PM 69.1 °F - 64.9 °F 87% 29.83 in 10.0 mi SE 12.7 mph 21.9 mph 0.01 in   Overcast
10:20 PM 68.0 °F - 64.4 °F 88% 29.91 in 10.0 mi NE 10.4 mph - N/A   Mostly Cloudy
10:53 PM 69.1 °F - 64.9 °F 87% 29.91 in 10.0 mi Calm Calm - N/A   Mostly Cloudy
11:53 PM 66.9 °F - 66.0 °F 97% 29.90 in 10.0 mi Calm Calm - N/A   Partly Cloudy